Showing default

OV2-1, 1641

Orbit data source: Space-Track

OV2-1, 1641 is a payload satellite owned by USAF SSD (US) in LEO that was launched on Fri, 15 Oct 1965 UTC via a TITAN IIIC launch vehicle from the Air Force Eastern Test Range (AFETR). Payload-class satellites include a variety of spacecraft equipped with specific instruments for various scientific and technological missions. These include communications satellites like Starlink; space stations such as the ISS; scientific satellites like the Hubble; Earth observation satellites from companies like Planet Labs, Umbra, and HawkEye 360; GPS; miniature CubeSats for education and research; and military/defense satellites.

Loading next visibility...
Identifier
1641, 1965-082C
Orbit
LEO
Country
Flag of USUS
Related business
Manufacturer
Northrop
Mission
Non-operational spacecraft
Bus & Motor
OV2, Unknown motor
Mass
170 kg wet, 170 kg dry
Launch date (UTC)
1965-10-15 (61 years ago)
Launch vehicle
TITAN IIIC
Launch site
Air Force Eastern Test Range (AFETR)
Object type
Payload
Rocket body
Debris
Shape & HBR
Unknown
Radar Cross Section
Medium (>0.1 m² and <1 m²)

Expand to show TLE details & history
Last TLE update: 17 hours ago

TLE from 17 hours ago
0 OV2-1
1 01641U 65082C   26129.27404613  .00000197  00000-0  37698-4 0  9994
2 01641  32.2958  89.8694 0018759 219.4552 140.4728 14.54799135211621
Epoch: 2026-05-09T06:34Z
TLE epoch observation values (Epoch: 2026-05-09T06:34:37.585Z)
Latitude
-0.00001°
Longitude
124.11895°
Altitude
718.951 km
Speed
7.493 km/s
True Right ascension
05h 59m 28s
True Declination
0° 00' 00"
Sunlit
Object was in daylight at epoch
Visualization orbit readout
Latitude
Unknown
Longitude
Unknown
Altitude
Unknown
Speed
Unknown
Apparent Right ascension
Unknown
Apparent Declination
Unknown
Sunlit
N/A
Visualization observer readout
Local Sidereal Time
08:05:05
Azimuth
Unknown
Elevation
Unknown
Doppler factor
Unknown
Orbital elements
Apogee altitude
726.879 km
Perigee altitude
700.272 km
Semi-major axis
7,091.713 km
Eccentricity
0.00188
Inclination
32.2958°
RAAN
89.8694°
Arg. of periapsis
219.4552°
True anomaly
140.60936°
Mean anomaly
140.4728°
Eccentric anomaly
140.54111°
Mean motion
3.63426 °/min
Orbital period
99.06 mins
BSTAR
0.000037698

Documentation

Showing up to 5 results
|